{"data":{"norad_id":53421,"intl_designator":"2022-097AK","name":"STARLINK-4545","alt_names":[],"object_type":"PAYLOAD","status":"ACTIVE","operator":null,"country":"US","launch_date":"2022-08-10","launch_site_code":"AFETR","launch_vehicle":null,"mission":null,"orbit_class":"UNKNOWN","rcs_meters":null,"size_class":null,"mass_kg":null,"dimensions":null,"purposes":["comms"],"wikipedia_slug":null,"has_3d_model":false,"image_url":null,"decayed_at":null,"tle_current":{"epoch":"2026-05-25T02:54:34.030944Z","epoch_age_seconds":54818,"freshness":"FRESH","line1":"1 53421U 22097AK  26145.12122721 -.00004273  00000+0 -25035-3 0  9996","line2":"2 53421  53.2142 131.0028 0001209  86.5482 273.5649 15.08863037210161","mean_motion":15.08863037,"eccentricity":0.0001209,"inclination_deg":53.2142,"raan_deg":131.0028,"arg_perigee_deg":86.5482,"mean_anomaly_deg":273.5649,"bstar":-0.00025035,"rev_number":21016,"period_min":95.436097557475,"perigee_km":538.83661174112,"apogee_km":540.50933819307,"semimajor_km":6917.8099749671,"source":"CELESTRAK","updated_at":"2026-05-25T13:38:17.403497Z"}}}